Regional Weather Roundup
Issued by NWS

Home | Current Version | Previous Version | Text Only | Print | Product List | Glossary On
Versions: 1 2 3 4 5 6 7 8 9 10 11 12 13 14 15 16 17 18 19 20 21 22 23 24 25 26 27 28 29 30 31 32 33 34 35 36 37 38 39 40 41 42 43 44 45 46 47 48 49 50
000
ASUS46 KLOX 280212
RWRCA

SOUTHERN CALIFORNIA WEATHER ROUNDUP
NATIONAL WEATHER SERVICE OXNARD CALIFORNIA
600 PM PST SAT DEC 27 2014

NOTE: "FAIR" INDICATES FEW OR NO CLOUDS BELOW 12,000 FEET WITH NO
SIGNIFICANT WEATHER AND/OR OBSTRUCTIONS TO VISIBILITY.

  -  STATIONS PRECEEDED BY AN ASTERISK (*) ARE NOT NWS OR FAA
     STATIONS AND ARE NOT SUBJECT TO NWS AND FAA QUALITY CONTROL.

CAZ041-042-087-280300-
LA AND ORANGE COUNTY COASTAL AREAS


CITY           SKY/WX    TMP DP  RH WIND       PRES   REMARKS
L.A. DOWNTOWN  CLEAR     54  33  45 CALM      30.31R
L.A. AIRPORT   PTCLDY    55  35  47 W7        30.31R
LONG BEACH     CLEAR     56  33  42 W6        30.31R

CITY           SKY/WX    TMP DP  RH WIND       PRES   REMARKS
AVALON           N/A     50 N/A N/A MISG        N/A
FULLERTON      CLEAR     56  25  30 NW5       30.30R
*GETTY CENTER    N/A     50  25  37 W7          N/A
HAWTHORNE      CLEAR     57  35  43 CALM      30.32R
*LOS ALAMITOS  FAIR      53  32  45 W7        30.31R
*REDONDO BEACH   N/A     55  38  51 CALM      30.30R
SANTA ANA      PTCLDY    60  28  29 W3        30.30R
STA MONICA APT CLEAR     57  31  37 SW5       30.31R
TORRANCE       CLEAR     54  32  43 VRB7      30.32R
*UCLA            N/A     52  28  40 W3        30.28R

$$

CAZ547-548-048-280300-
LA COUNTY VALLEYS AND INLAND EMPIRE


CITY           SKY/WX    TMP DP  RH WIND       PRES   REMARKS
BURBANK        CLEAR     54  27  35 SE6       30.30R
VAN NUYS       CLEAR     52  16  24 N12       30.29R

CITY           SKY/WX    TMP DP  RH WIND       PRES   REMARKS
CORONA AIRPORT CLEAR     49  21  33 CALM      30.31R
*CHATSWORTH      N/A     52  17  24 N3        30.30R
CHINO          PTCLDY    51  24  34 CALM      30.31R
MARCH AFB      CLEAR     48  14  25 NE10      30.30R
*NORTHRIDGE      N/A     52   7  16 N6G14       N/A
ONTARIO        PTCLDY    54  17  23 CALM      30.30R
*PASADENA        N/A     54  30  40 E2          N/A
RIVERSIDE      CLEAR     53  12  19 NE5       30.30R
SAN BERNARDINO CLEAR    N/A N/A N/A CALM      30.30R
*WHITEMAN AP   CLEAR     54  27  35 SE6       30.32R
*WOODLAND HILL   N/A     48  16  27 SE1         N/A

$$

CAZ054-055-280300-
LA AND SAN BERNARDINO COUNTY MOUNTAINS


CITY           SKY/WX    TMP DP  RH WIND       PRES   REMARKS
*BIG BEAR AIRP CLEAR     27   3  36 CALM      30.28R
MT WILSON NWS    N/A     37   7  28 SW7         N/A  WCI  32
SANDBERG       CLEAR     35   9  33 NE12      30.30R WCI  27
*WARM SPRINGS    N/A     35   8  32 NE14        N/A  WCI  26

$$

CAZ028-029-059-060-099-280300-
ANTELOPE VALLEY AND SURROUNDING AREAS


CITY           SKY/WX    TMP DP  RH WIND       PRES   REMARKS
LANCASTER      PTCLDY    36  19  50 N3        30.35R
PALMDALE       PTCLDY    39  15  37 N5        30.34R

CITY           SKY/WX    TMP DP  RH WIND       PRES   REMARKS
29 PALMS       CLEAR     42   8  24 W6        30.40R
BARSTOW/DAGGET CLEAR     41   9  26 CALM      30.35R
BISHOP         PTCLDY    30   3  31 CALM      30.30R
CHINA LAKE     PTCLDY    40  15  36 CALM      30.34R
EDWARDS AFB    PTCLDY    41  15  35 NW5       30.33R
MOJAVE         FAIR      36  16  44 W3        30.34R
NEEDLES        CLEAR     47  11  23 NW7       30.34S
VICTORVILLE    CLEAR     37  10  32 N3        30.33R

$$

CAZ039-040-280300-
VENTURA AND SANTA BARBARA COUNTY COAST


CITY           SKY/WX    TMP DP  RH WIND       PRES   REMARKS
CAMARILLO      CLEAR     53  20  27 E5        30.32R
NWS OXNARD       N/A     55  27  33 CALM      30.31R
OXNARD AIRPORT CLEAR     55  36  48 N5        30.31R
*POINT MUGU    PTCLDY    55  38  52 N5        30.32R
SBA APT/GOLETA CLEAR     51  34  52 CALM      30.32R
*SANTA BARBARA   N/A     55  32  41 CALM      30.40R
*VENTURA         N/A     54  28  37 CALM      30.35S

$$

CAZ044-045-280300-
VENTURA COUNTY VALLEYS


CITY           SKY/WX    TMP DP  RH WIND       PRES   REMARKS
*OJAI            N/A     43  34  71 CALM      30.32R
*FILLMORE        N/A     48  28  44 CALM      30.23R

$$

CAZ053-280300-
VENTURA COUNTY MOUNTAINS


CITY           SKY/WX    TMP DP  RH WIND       PRES   REMARKS
*LOCKWOOD VLY    N/A     28  18  64 MISG        N/A
*ROSE VALLEY     N/A     36  25  64 MISG        N/A

$$

CAZ034-035-036-280300-
CENTRAL COAST AND SANTA YNEZ VALLEY


CITY           SKY/WX    TMP DP  RH WIND       PRES   REMARKS
SAN LUIS OBISP PTCLDY    50  40  68 CALM      30.33R
SANTA MARIA    CLEAR     51  39  63 CALM      30.33R

CITY           SKY/WX    TMP DP  RH WIND       PRES   REMARKS
*CAL POLY SLO    N/A     50  41  71 CALM        N/A
*LOMPOC        CLEAR     54  32  43 CALM      30.33R
*PISMO BEACH     N/A     52  41  65 NE1       30.34R
*SANTA YNEZ    FAIR      50  30  46 CALM      30.32S

$$

CAZ037-038-051-280300-
SAN LUIS OBISPO COUNTY INTERIOR AND CUYAMA VALLEY


CITY           SKY/WX    TMP DP  RH WIND       PRES   REMARKS
*CUYAMA          N/A     45  30  55 S3        30.36R
PASO ROBLES    PTCLDY    51  38  60 SW3       30.32R

$$

CAZ032-033-061-280300-
SOUTHERN DESERTS


CITY           SKY/WX    TMP DP  RH WIND       PRES   REMARKS
BLYTHE         CLEAR     49  15  25 NW8       30.33R
IMPERIAL       CLEAR     46  20  35 W3        30.33R
PALM SPRINGS   CLEAR     51  17  26 N3        30.35R
THERMAL        CLEAR     44  12  27 CALM      30.33R

$$

ELSEWHERE ACROSS THE WESTERN UNITED STATES AND MEXICO


CITY           SKY/WX    TMP DP  RH WIND       PRES   REMARKS
DENVER, CO     MOCLDY    17  10  74 S8        30.04S WCI   7
GRAND CANYON,  CLEAR     18  11  74 N3        30.28R
HONOLULU, HI   MOSUNNY   77  54  44 NW18G29   29.84R
KAHULUI, MAUI  MOSUNNY   75  57  53 N18       29.84R
LAKE TAHOE, CA MOCLDY    29  19  66 S3        30.26R
LAS VEGAS, NV  CLEAR     44   7  21 S5        30.32R
MAMMOTH LAKES, FAIR      23   7  50 CALM      30.26R
MEXICO CITY, M CLEAR     66  36  32 SW6       30.32R
PHOENIX, AZ    PTCLDY    51  21  30 W7        30.26R
PORTLAND, OR   LGT RAIN  45  43  93 VRB3      30.20R FOG
RENO, NV       PTCLDY    35  15  44 CALM      30.28R
SALT LAKE CITY MOCLDY    25  15  66 SE8       30.30F WCI  16
SAN DIEGO, CA  PTCLDY    57  30  35 CALM      30.32R
SAN FRANCISCO, PTCLDY    53  38  56 CALM      30.35R
SAN JOSE, CA   PTCLDY    47  34  60 NW5       30.35R
SEATTLE, WA    PTCLDY    44  37  76 S7        30.07R
TIJUANA, MEX   PTCLDY    52  28  40 CALM      30.31R

$$

STATION/POSITION TIME  TEMP    WIND        PRES    VSBY  WAVE
                       AIR SEA DIR/SP/G                  HT/PER
                 (UTC) (F)     (DEG/KT/KT) (MB)    (MI)  (FT/S)
POINT ARGUELLO B NOT AVBL
WEST SANTA BARBA 0200   59 61  220/  2/  4 1026.1R         5/11
POINT CONCEPTION NOT AVBL
EAST SANTA BARBA NOT AVBL
SANTA MONICA BAY 0200   58 63  270/  6/  8 1026.7R         2/13


USA.gov is the U.S. government's official web portal to all federal, state and local government web resources and services.